Погода в Беломестном

Россия / Белгородская область     50°41′34″N   37°43′36″E
темп.,
°C
ветер,
м/с
пор.,
м/с
влажн.,
%
обл.,
%
осадки,
мм/ч
давл.,
гПа
погр.,
м
9 марта, вт
вт900:00−3зсз258694 0.0 1010200
03:00−4зсз358759 0.0 1011241
06:00−4сз3587100 0.1 1012409
09:00−5с5772100 0.3 1013652
12:00−5ссз566692 0.0 10151034
15:00−5ссз566696 0.1 10171128
18:00−6ссз5769100 0.1 10191004
21:00−8ссз5872100 0.1 1021803
10 марта, ср
ср1000:00−9ссз46723 0.0 1023724
03:00−9ссз467949 0.0 1024609
06:00−10ссз467927 0.0 1026514
09:00−10ссз467114 0.0 1027500
12:00−8ссз45532 0.0 1027780
15:00−6ссз344819 0.0 1027894
18:00−7ссз335598 0.0 1027816
21:00−8св336694 0.0 1028499
11 марта, чт
чт1100:00−9всв338295 0.0 1029382
03:00−10всв357995 0.1 1030370
06:00−11всв457393 0.0 1031405
09:00−12всв456567 0.0 1032399
12:00−9в45420 0.0 1032726
15:00−8в44360 0.0 10321003
18:00−9в44420 0.0 1032780
21:00−10в45510 0.0 1033590
12 марта, пт
пт1200:00−10вюв35570 0.0 1034529
03:00−11вюв35630 0.0 1034409
06:00−12юв35660 0.0 1034311
09:00−11юв45580 0.0 1035411
12:00−7ююв45420 0.0 1034764
15:00−5ююв56380 0.0 10331010
18:00−6ююв574170 0.0 1031891
21:00−6ююв594385 0.0 1032736
13 марта, сб
сб1300:00−7ююв51145100 0.0 1032648
03:00−7ю51144100 0.0 1031638
06:00−7ю51248100 0.0 1030583
09:00−6ю71242100 0.0 1030652
12:00−4ю7103699 0.0 1030783
15:00−1ю6103394 0.0 1028934
18:00−2ю5935100 0.0 1027931
21:00−2ю51041100 0.0 1027709